This is the latest recevied weather packets stored in our database for station/object K4IR. If no packets are shown the sender has not sent any weather packets the latest 10 day(s).
| Time | Temp. | Humidity | Pressure | Rain* | Wind** | Luminosity | Snow |
|---|---|---|---|---|---|---|---|
| 1787407330 | 24.44° C | 99% | 1015.7 hPa | 0.51 mm | - | 250 W/m² | - |
| 1787406727 | 23.89° C | 99% | 1015.7 hPa | 0.51 mm | - | 191 W/m² | - |
| 1787406124 | 23.89° C | 99% | 1016 hPa | 0 mm | - | 144 W/m² | - |
| 1787405523 | 23.89° C | 99% | 1015.8 hPa | 0 mm | - | 92 W/m² | - |
| 1787404919 | 23.33° C | 99% | 1015.9 hPa | 0 mm | - | 50 W/m² | - |
| 1787404320 | 23.33° C | 99% | 1015.9 hPa | 0 mm | - | 62 W/m² | - |
| 1787403717 | 23.33° C | 99% | 1015.7 hPa | 0 mm | - | 86 W/m² | - |
| 1787403112 | 23.33° C | 99% | 1015 hPa | 0.51 mm | - | 79 W/m² | - |
| 1787402508 | 23.33° C | 99% | 1014.9 hPa | 4.83 mm | - | 48 W/m² | - |
| 1787401908 | 22.78° C | 99% | 1015.2 hPa | 4.32 mm | - | 31 W/m² | - |
| 1787401306 | 22.78° C | 99% | 1015.3 hPa | 31.24 mm | - | 21 W/m² | - |
| 1787400702 | 22.78° C | 99% | 1015.3 hPa | 0 mm | - | 11 W/m² | - |
| 1787400098 | 22.78° C | 99% | 1015.1 hPa | 0 mm | - | 9 W/m² | - |
| 1787399496 | 22.78° C | 99% | 1014.9 hPa | 1.78 mm | - | 11 W/m² | - |
| 1787398896 | 22.78° C | 99% | 1015 hPa | 38.35 mm | - | 8 W/m² | - |
| 1787398294 | 23.33° C | 99% | 1015.6 hPa | 28.7 mm | - | 8 W/m² | - |
| 1787397689 | 23.33° C | 99% | 1015.3 hPa | 0 mm | - | 13 W/m² | - |
| 1787397084 | 23.33° C | 99% | 1015.1 hPa | 0 mm | - | 5 W/m² | - |
| 1787396481 | 22.78° C | 99% | 1014.9 hPa | 0.51 mm | - | 6 W/m² | - |
| 1787395881 | 22.78° C | 99% | 1014.6 hPa | 0 mm | - | 2 W/m² | - |
| 1787395276 | 23.33° C | 99% | 1014.7 hPa | 0 mm | - | 1 W/m² | - |
| 1787394673 | 22.78° C | 99% | 1014.5 hPa | 0 mm | - | 0 W/m² | - |
| 1787394069 | 22.78° C | 99% | 1014.5 hPa | 0 mm | - | 0 W/m² | - |
| 1787393465 | 22.78° C | 99% | 1014.5 hPa | 0 mm | - | 0 W/m² | - |
| 1787392862 | 22.78° C | 99% | 1014.5 hPa | 0 mm | - | 0 W/m² | - |
* Rain latest hour (hover to see other rain measurements)
** Current wind speed in m/s (hover to see current wind gust speed)